GW5327 Weather Reports


time (UTC)temp
C
wind
direction
speed
KPH
gust
KPH
rain 1hr
cm
rain 24hr
cm
rain mn
cm
humidity
%
barometer
mb
20260510224556 21 347 4.8 17.7 0.00 0.00 0.00 67 1015.7
20260510223038 21 248 0.0 0.0 0.00 0.00 0.00 64 1015.6
20260510221543 22 250 0.0 1.6 0.00 0.00 0.00 63 1015.5
20260510220036 23 326 0.0 0.0 0.00 0.00 0.00 61 1015.3
20260510214548 22 289 0.0 0.0 0.00 0.00 0.00 63 1015.2
20260510213035 22 282 0.0 0.0 0.00 0.00 0.00 61 1015.1
20260510211535 22 204 0.0 0.0 0.00 0.00 0.00 60 1015.0
20260510210034 22 283 0.0 6.4 0.00 0.00 0.00 59 1014.7
20260510204534 23 287 4.8 16.1 0.00 0.00 0.00 56 1014.8
20260510203037 23 246 3.2 12.9 0.00 0.00 0.00 57 1014.8
20260510201532 23 246 4.8 16.1 0.00 0.00 0.00 58 1014.8
20260510200032 22 319 3.2 14.5 0.00 0.00 0.00 58 1014.8
20260510194539 24 259 3.2 19.3 0.00 0.00 0.00 56 1014.9
20260510193029 23 335 0.0 12.9 0.00 0.00 0.00 60 1015.1
20260510191529 23 352 0.0 0.0 0.00 0.00 0.00 59 1015.2
20260510190029 23 284 0.0 0.0 0.00 0.00 0.00 61 1015.1
20260510184527 23 248 0.0 0.0 0.00 0.00 0.00 56 1015.0
20260510183026 23 216 1.6 11.3 0.00 0.00 0.00 54 1014.9
20260510181527 24 214 0.0 11.3 0.00 0.00 0.00 52 1014.7
20260510180024 25 291 0.0 0.0 0.00 0.00 0.00 53 1014.7
20260510174523 23 263 0.0 1.6 0.00 0.00 0.00 54 1014.9
20260510173021 22 223 0.0 11.3 0.00 0.00 0.00 54 1015.0
20260510171521 23 199 0.0 0.0 0.00 0.00 0.00 54 1015.0
20260510170020 23 189 0.0 0.0 0.00 0.00 0.00 50 1014.9
20260510164521 23 214 0.0 0.0 0.00 0.00 0.00 55 1014.9
20260510163020 23 308 0.0 0.0 0.00 0.00 0.00 55 1015.0
20260510161520 24 216 1.6 14.5 0.00 0.00 0.00 53 1015.0
20260510160020 23 262 0.0 0.0 0.00 0.00 0.00 54 1015.0
20260510154514 24 176 0.0 0.0 0.00 0.00 0.00 58 1014.9
20260510153013 23 193 0.0 0.0 0.00 0.00 0.00 55 1015.0
20260510151508 22 299 0.0 0.0 0.00 0.00 0.00 62 1015.1
20260510150008 22 262 0.0 0.0 0.00 0.00 0.00 60 1015.0
20260510144512 21 131 0.0 0.0 0.00 0.00 0.00 58 1015.2
20260510143006 21 246 0.0 0.0 0.00 0.00 0.00 65 1015.2
20260510141600 20 232 0.0 0.0 0.00 0.00 0.00 65 1015.3
20260510140100 20 226 0.0 0.0 0.00 0.00 0.00 64 1015.3
20260510134605 20 229 0.0 0.0 0.00 0.00 0.00 65 1015.2
20260510133053 19 187 0.0 0.0 0.00 0.00 0.00 68 1015.1
20260510131549 18 156 0.0 0.0 0.00 0.00 0.00 69 1015.0
20260510130048 18 200 0.0 0.0 0.00 0.00 0.00 69 1015.0
20260510124555 17 241 0.0 0.0 0.00 0.00 0.00 71 1015.0
20260510123043 17 140 0.0 0.0 0.00 0.00 0.00 72 1015.0
20260510121539 16 198 0.0 0.0 0.00 0.00 0.00 73 1015.0
20260510120036 16 208 0.0 0.0 0.00 0.00 0.00 75 1014.8
20260510114537 15 185 0.0 0.0 0.00 0.00 0.00 77 1014.7
20260510113034 14 185 0.0 0.0 0.00 0.00 0.00 79 1014.5
20260510111526 14 185 0.0 0.0 0.00 0.00 0.00 81 1014.1
20260510110022 13 185 0.0 0.0 0.00 0.00 0.00 86 1014.0
20260510104531 11 347 0.0 0.0 0.00 0.00 0.00 89 1013.7
20260510103022 10 185 0.0 0.0 0.00 0.00 0.00 88 1013.8
20260510101517 11 224 0.0 0.0 0.00 0.00 0.00 87 1013.7
20260510100015 11 225 0.0 0.0 0.00 0.00 0.00 87 1013.3
20260510094531 11 347 0.0 0.0 0.00 0.00 0.00 86 1013.1
20260510093012 11 225 0.0 0.0 0.00 0.00 0.00 85 1013.0
20260510091509 12 225 0.0 0.0 0.00 0.00 0.00 83 1013.0
20260510090010 13 225 0.0 0.0 0.00 0.00 0.00 82 1012.8
20260510084508 13 347 0.0 0.0 0.00 0.00 0.00 82 1012.7
20260510083009 13 225 0.0 0.0 0.00 0.00 0.00 83 1012.6
20260510081514 13 225 0.0 0.0 0.00 0.00 0.00 83 1012.5
20260510080004 13 225 0.0 0.0 0.00 0.00 0.00 84 1012.5
20260510074504 13 225 0.0 0.0 0.00 0.00 0.00 84 1012.4
20260510073002 12 225 0.0 0.0 0.00 0.00 0.00 84 1012.4
20260510071500 12 225 0.0 0.0 0.00 0.00 0.00 85 1012.4
20260510070100 12 226 0.0 0.0 0.00 0.00 0.00 87 1012.3
20260510064600 12 226 0.0 0.0 0.00 0.00 0.00 87 1012.4
20260510063105 12 226 0.0 0.0 0.00 0.00 0.00 87 1012.4
20260510061604 12 227 0.0 0.0 0.00 0.00 0.00 87 1012.4
20260510060056 12 227 0.0 0.0 0.00 0.00 0.00 88 1012.5
20260510054605 12 227 0.0 0.0 0.00 0.00 0.00 88 1012.6
20260510053053 12 227 0.0 0.0 0.00 0.00 0.00 87 1012.7
20260510051551 12 227 0.0 0.0 0.00 0.00 0.00 87 1012.7
20260510050053 12 227 0.0 0.0 0.00 0.00 0.00 87 1012.7
20260510044549 12 228 0.0 0.0 0.00 0.00 0.00 86 1012.8
20260510043047 12 228 0.0 0.0 0.00 0.00 0.00 87 1013.0
20260510041601 12 228 0.0 0.0 0.00 0.00 0.00 87 1013.0
20260510040043 12 228 0.0 0.0 0.00 0.00 0.00 87 1013.0
20260510034547 12 347 0.0 0.0 0.00 0.00 0.00 86 1012.8
20260510033047 12 347 0.0 0.0 0.00 0.00 0.00 85 1012.6
20260510031550 13 347 0.0 0.0 0.00 0.00 0.00 84 1012.7
20260510030039 13 347 0.0 0.0 0.00 0.00 0.00 82 1012.8
20260510024553 14 347 0.0 0.0 0.00 0.00 0.00 81 1012.4
20260510023036 14 347 0.0 0.0 0.00 0.00 0.00 80 1012.3
20260510021533 15 347 0.0 0.0 0.00 0.00 0.00 78 1012.0
20260510020033 15 347 0.0 0.0 0.00 0.00 0.00 77 1011.8
20260510014532 16 228 0.0 0.0 0.00 0.00 0.00 76 1011.5
20260510013031 16 227 0.0 0.0 0.00 0.00 0.00 76 1011.3
20260510011531 16 227 0.0 0.0 0.00 0.00 0.00 76 1011.2
20260510010030 16 227 0.0 0.0 0.00 0.00 0.00 75 1011.0
20260510004530 17 228 0.0 0.0 0.00 0.00 0.00 72 1010.8
20260510003030 17 347 0.0 0.0 0.00 0.00 0.00 68 1010.6
20260510001530 18 228 0.0 0.0 0.00 0.00 0.00 65 1010.4
20260510000028 19 228 0.0 0.0 0.00 0.00 0.00 64 1010.4
20260509234532 20 253 0.0 0.0 0.00 0.00 0.00 63 1010.4
20260509233027 20 264 0.0 0.0 0.00 0.00 0.00 62 1010.4
20260509231527 20 154 0.0 0.0 0.00 0.00 0.00 61 1010.3
20260509230026 20 202 0.0 0.0 0.00 0.00 0.00 61 1010.2